| time (UTC) | temp F | wind direction | speed knots | gust knots | rain 1hr in | rain 24hr in | rain mn in | humidity % | barometer mb |
| 20260504004536 | 51 | 41 | 0.0 | 0.0 | 0.00 | 0.01 | 0.01 | 73 | 1017.5 |
| 20260504003041 | 52 | 41 | 0.0 | 0.0 | 0.00 | 0.01 | 0.01 | 71 | 1017.4 |
| 20260504001535 | 54 | 41 | 0.0 | 0.0 | 0.00 | 0.01 | 0.01 | 69 | 1017.3 |
| 20260504000042 | 55 | 41 | 0.0 | 0.0 | 0.00 | 0.01 | 0.01 | 66 | 1017.3 |
| 20260503234534 | 56 | 41 | 0.0 | 0.9 | 0.00 | 0.01 | 0.01 | 63 | 1017.2 |
| 20260503233038 | 57 | 41 | 0.0 | 1.7 | 0.00 | 0.01 | 0.01 | 61 | 1017.1 |
| 20260503231532 | 59 | 41 | 0.0 | 1.7 | 0.00 | 0.01 | 0.01 | 61 | 1017.1 |
| 20260503230031 | 60 | 41 | 0.0 | 0.9 | 0.00 | 0.01 | 0.01 | 56 | 1017.0 |
| 20260503224532 | 61 | 42 | 0.0 | 4.3 | 0.00 | 0.01 | 0.01 | 55 | 1016.9 |
| 20260503223030 | 62 | 13 | 1.7 | 3.5 | 0.00 | 0.01 | 0.01 | 50 | 1017.0 |
| 20260503221529 | 63 | 63 | 0.0 | 2.6 | 0.00 | 0.01 | 0.01 | 52 | 1016.9 |
| 20260503220028 | 64 | 85 | 0.9 | 1.7 | 0.00 | 0.01 | 0.01 | 47 | 1017.0 |
| 20260503214527 | 64 | 85 | 0.0 | 3.5 | 0.00 | 0.01 | 0.01 | 44 | 1017.0 |
| 20260503213027 | 63 | 43 | 0.0 | 4.3 | 0.00 | 0.01 | 0.01 | 46 | 1017.1 |
| 20260503211528 | 63 | 40 | 0.0 | 4.3 | 0.00 | 0.01 | 0.01 | 44 | 1017.2 |
| 20260503210027 | 63 | 59 | 1.7 | 6.1 | 0.00 | 0.01 | 0.01 | 46 | 1017.3 |
| 20260503204528 | 63 | 40 | 0.9 | 3.5 | 0.00 | 0.01 | 0.01 | 47 | 1017.4 |
| 20260503203032 | 64 | 78 | 1.7 | 3.5 | 0.00 | 0.01 | 0.01 | 46 | 1017.7 |
| 20260503201526 | 63 | 21 | 0.9 | 7.0 | 0.00 | 0.01 | 0.01 | 46 | 1017.9 |
| 20260503200025 | 64 | 14 | 2.6 | 6.1 | 0.00 | 0.01 | 0.01 | 45 | 1018.1 |
| 20260503194523 | 64 | 360 | 2.6 | 7.0 | 0.00 | 0.01 | 0.01 | 43 | 1018.3 |
| 20260503193023 | 64 | 38 | 3.5 | 8.7 | 0.00 | 0.01 | 0.01 | 42 | 1018.5 |
| 20260503191523 | 65 | 5 | 2.6 | 5.2 | 0.00 | 0.01 | 0.01 | 43 | 1018.9 |
| 20260503190024 | 64 | 351 | 1.7 | 5.2 | 0.00 | 0.01 | 0.01 | 46 | 1018.9 |
| 20260503184520 | 65 | 340 | 2.6 | 5.2 | 0.00 | 0.01 | 0.01 | 43 | 1019.0 |
| 20260503183021 | 65 | 346 | 0.9 | 3.5 | 0.00 | 0.01 | 0.01 | 43 | 1019.1 |
| 20260503181517 | 64 | 61 | 1.7 | 4.3 | 0.00 | 0.01 | 0.01 | 40 | 1019.4 |
| 20260503180017 | 64 | 320 | 1.7 | 3.5 | 0.00 | 0.01 | 0.01 | 40 | 1019.4 |
| 20260503174519 | 65 | 221 | 0.9 | 3.5 | 0.00 | 0.01 | 0.01 | 39 | 1019.5 |
| 20260503173014 | 64 | 36 | 1.7 | 4.3 | 0.00 | 0.01 | 0.01 | 39 | 1019.6 |
| 20260503171514 | 64 | 56 | 1.7 | 5.2 | 0.00 | 0.01 | 0.01 | 43 | 1020.1 |
| 20260503081545 | 32 | 330 | 0.0 | 1.7 | 0.00 | 0.00 | 0.00 | 95 | 1018.4 |
| 20260503071547 | 34 | 330 | 0.0 | 0.9 | 0.00 | 0.00 | 0.00 | 94 | 1017.9 |
| 20260503070126 | 34 | 330 | 0.0 | 0.9 | 0.00 | 0.00 | 0.00 | 94 | 1017.7 |
| 20260503054524 | 35 | 330 | 0.0 | 1.7 | 0.00 | 0.00 | 0.00 | 93 | 1017.5 |
| 20260503053018 | 35 | 330 | 0.0 | 2.6 | 0.00 | 0.00 | 0.00 | 93 | 1017.6 |
| 20260503051520 | 35 | 330 | 0.0 | 1.7 | 0.00 | 0.00 | 0.00 | 92 | 1017.6 |
| 20260503050014 | 36 | 330 | 0.0 | 0.9 | 0.00 | 0.00 | 0.00 | 92 | 1017.5 |
| 20260503044519 | 36 | 330 | 0.0 | 0.9 | 0.00 | 0.00 | 0.00 | 92 | 1017.3 |
| 20260503043014 | 36 | 330 | 0.0 | 0.9 | 0.00 | 0.00 | 0.00 | 91 | 1017.2 |
| 20260503041507 | 37 | 330 | 0.0 | 1.7 | 0.00 | 0.00 | 0.00 | 91 | 1016.9 |
| 20260503040006 | 37 | 330 | 0.0 | 0.9 | 0.00 | 0.00 | 0.00 | 90 | 1017.0 |
| 20260503034502 | 37 | 330 | 0.0 | 1.7 | 0.00 | 0.00 | 0.00 | 89 | 1016.8 |
| 20260503033100 | 38 | 330 | 0.0 | 1.7 | 0.00 | 0.00 | 0.00 | 88 | 1016.7 |
| 20260503031557 | 38 | 330 | 0.0 | 0.9 | 0.00 | 0.00 | 0.00 | 87 | 1016.5 |
| 20260503030100 | 39 | 330 | 0.0 | 0.9 | 0.00 | 0.00 | 0.00 | 86 | 1016.3 |
| 20260503024551 | 40 | 330 | 0.0 | 1.7 | 0.00 | 0.00 | 0.00 | 85 | 1016.2 |
| 20260503023055 | 40 | 330 | 0.0 | 1.7 | 0.00 | 0.00 | 0.00 | 84 | 1016.0 |
| 20260503021555 | 41 | 330 | 0.0 | 0.9 | 0.00 | 0.00 | 0.00 | 82 | 1015.9 |
| 20260503020045 | 42 | 330 | 0.0 | 0.9 | 0.00 | 0.00 | 0.00 | 81 | 1015.8 |
| 20260503014540 | 43 | 330 | 0.0 | 0.9 | 0.00 | 0.00 | 0.00 | 78 | 1015.6 |
| 20260503013039 | 44 | 330 | 0.0 | 1.7 | 0.00 | 0.00 | 0.00 | 77 | 1015.4 |
| 20260503011545 | 45 | 330 | 0.0 | 1.7 | 0.00 | 0.00 | 0.00 | 74 | 1015.0 |
| 20260503010036 | 46 | 330 | 0.9 | 1.7 | 0.00 | 0.00 | 0.00 | 74 | 1014.8 |